,,,PA_Meas_PMT16A,,PR_Meas_QMR101_102,,RH_Meas_QMH101,,SR_Meas_QMS101,,TA_Meas_QMH101,,GenWind,,GenWind,
date,time,status,PA,status,PR,status,RH,status,SR,status,TA,status,DirAvg,status,SpdAvg,
2011-03-25, 00:00:04,VALID,1002.6,VALID,0,INVALID,163.708,VALID,0,VALID,24.5406,VALID,358,VALID,0.028125,
2011-03-25, 00:01:04,VALID,1002.57,VALID,0,INVALID,163.685,VALID,0,VALID,24.5193,VALID,358,VALID,0.0460938,
2011-03-25, 00:02:04,VALID,1002.53,VALID,0,INVALID,163.678,VALID,0,VALID,24.498,VALID,358,VALID,0.204688,
2011-03-25, 00:03:04,VALID,1002.56,VALID,0,INVALID,163.693,VALID,0,VALID,24.5193,VALID,358,VALID,0.258203,
2011-03-25, 00:04:04,VALID,1002.53,VALID,0,INVALID,163.678,VALID,0,VALID,24.4785,VALID,358,VALID,0.443359,
2011-03-25, 00:05:04,VALID,1002.48,VALID,0,INVALID,163.693,VALID,0,VALID,24.4998,VALID,358,VALID,0.523438,
2011-03-25, 00:06:04,VALID,1002.48,VALID,0,INVALID,163.685,VALID,0,VALID,24.4998,VALID,5,VALID,0.555859,
2011-03-25, 00:07:04,VALID,1002.45,VALID,0,INVALID,163.662,VALID,0,VALID,24.4804,VALID,7,VALID,0.422266,
2011-03-25, 00:08:04,VALID,1002.42,VALID,0,INVALID,163.701,VALID,0,VALID,24.4396,VALID,7,VALID,0.474219,
2011-03-25, 00:09:04,VALID,1002.4,VALID,0,INVALID,163.708,VALID,0,VALID,24.422,VALID,6,VALID,0.466797,
2011-03-25, 00:10:04,VALID,1002.37,VALID,0,INVALID,163.708,VALID,0,VALID,24.4238,VALID,7,VALID,0.487109,
2011-03-25, 00:11:04,VALID,1002.33,VALID,0,INVALID,163.685,VALID,0,VALID,24.383,VALID,6,VALID,0.401563,
2011-03-25, 00:12:04,VALID,1002.35,VALID,0,INVALID,163.693,VALID,0,VALID,24.383,VALID,6,VALID,0.402344,
2011-03-25, 00:13:04,VALID,1002.3,VALID,0,INVALID,163.731,VALID,0,VALID,24.383,VALID,7,VALID,0.316797,
2011-03-25, 00:14:04,VALID,1002.31,VALID,0,INVALID,163.685,VALID,0,VALID,24.3636,VALID,7,VALID,0.383984,
2011-03-25, 00:15:04,VALID,1002.32,VALID,0,INVALID,163.701,VALID,0,VALID,24.3422,VALID,7,VALID,0.472656,
2011-03-25, 00:16:04,VALID,1002.28,VALID,0,INVALID,163.723,VALID,0,VALID,24.3441,VALID,7,VALID,0.466016,
2011-03-25, 00:17:04,VALID,1002.3,VALID,0,INVALID,163.716,VALID,0,VALID,24.3441,VALID,7,VALID,0.546484,
2011-03-25, 00:18:04,VALID,1002.27,VALID,0,INVALID,163.716,VALID,0,VALID,24.2839,VALID,7,VALID,0.533203,
2011-03-25, 00:19:04,VALID,1002.24,VALID,0,INVALID,163.685,VALID,0,VALID,24.3265,VALID,7,VALID,0.527734,
2011-03-25, 00:20:04,VALID,1002.22,VALID,0,INVALID,163.723,VALID,0,VALID,24.3052,VALID,7,VALID,0.538672,
2011-03-25, 00:21:04,VALID,1002.21,VALID,0,INVALID,163.723,VALID,0,VALID,24.2857,VALID,7,VALID,0.440625,
2011-03-25, 00:22:04,VALID,1002.19,VALID,0,INVALID,163.716,VALID,0,VALID,24.2857,VALID,7,VALID,0.528516,
2011-03-25, 00:23:04,VALID,1002.16,VALID,0,INVALID,163.708,VALID,0,VALID,24.2857,VALID,7,VALID,0.305469,
2011-03-25, 00:24:04,VALID,1002.13,VALID,0,INVALID,163.685,VALID,0,VALID,24.2644,VALID,7,VALID,0.353906,
2011-03-25, 00:25:04,VALID,1002.11,VALID,0,INVALID,163.723,VALID,0,VALID,24.2662,VALID,6,VALID,0.383594,
2011-03-25, 00:26:04,VALID,1002.06,VALID,0,INVALID,163.678,VALID,0,VALID,24.2662,VALID,6,VALID,0.342969,
2011-03-25, 00:27:04,VALID,1002.05,VALID,0,INVALID,163.731,VALID,0,VALID,24.2875,VALID,7,VALID,0.376953,
2011-03-25, 00:28:04,VALID,1002.01,VALID,0,INVALID,163.701,VALID,0,VALID,24.2468,VALID,7,VALID,0.456641,
2011-03-25, 00:29:04,VALID,1001.96,VALID,0,INVALID,163.723,VALID,0,VALID,24.2662,VALID,6,VALID,0.3875,
2011-03-25, 00:30:04,VALID,1001.95,VALID,0,INVALID,163.685,VALID,0,VALID,24.2662,VALID,7,VALID,0.448828,
2011-03-25, 00:31:04,VALID,1001.93,VALID,0,INVALID,163.716,VALID,0,VALID,24.3052,VALID,7,VALID,0.440625,
2011-03-25, 00:32:04,VALID,1001.88,VALID,0,INVALID,163.701,VALID,0,VALID,24.3265,VALID,7,VALID,0.529297,
2011-03-25, 00:33:04,VALID,1001.88,VALID,0,INVALID,163.701,VALID,0,VALID,24.3265,VALID,7,VALID,0.506641,
2011-03-25, 00:34:04,VALID,1001.86,VALID,0,INVALID,163.701,VALID,0,VALID,24.3052,VALID,7,VALID,0.448438,
2011-03-25, 00:35:04,VALID,1001.85,VALID,0,INVALID,163.701,VALID,0,VALID,24.3246,VALID,7,VALID,0.375781,
2011-03-25, 00:36:04,VALID,1001.82,VALID,0,INVALID,163.708,VALID,0,VALID,24.3052,VALID,7,VALID,0.285547,
2011-03-25, 00:37:04,VALID,1001.81,VALID,0,INVALID,163.708,VALID,0,VALID,24.3459,VALID,7,VALID,0.251172,
2011-03-25, 00:38:04,VALID,1001.77,VALID,0,INVALID,163.693,VALID,0,VALID,24.3459,VALID,7,VALID,0.25625,
2011-03-25, 00:39:04,VALID,1001.79,VALID,0,INVALID,163.701,VALID,0,VALID,24.3246,VALID,7,VALID,0.179297,
2011-03-25, 00:40:04,VALID,1001.74,VALID,0,INVALID,163.701,VALID,0,VALID,24.3246,VALID,7,VALID,0.359375,
2011-03-25, 00:41:04,VALID,1001.72,VALID,0,INVALID,163.708,VALID,0,VALID,24.3459,VALID,7,VALID,0.420703,
2011-03-25, 00:42:04,VALID,1001.72,VALID,0,INVALID,163.678,VALID,0,VALID,24.3052,VALID,7,VALID,0.508984,
2011-03-25, 00:43:04,VALID,1001.69,VALID,0,INVALID,163.723,VALID,0,VALID,24.2857,VALID,7,VALID,0.477734,
2011-03-25, 00:44:04,VALID,1001.68,VALID,0,INVALID,163.685,VALID,0,VALID,24.2662,VALID,7,VALID,0.544922,
2011-03-25, 00:45:04,VALID,1001.7,VALID,0,INVALID,163.731,VALID,0,VALID,24.2468,VALID,7,VALID,0.492188,
2011-03-25, 00:46:04,VALID,1001.64,VALID,0,INVALID,163.716,VALID,0,VALID,24.2097,VALID,6,VALID,0.429688,
2011-03-25, 00:47:04,VALID,1001.65,VALID,0,INVALID,163.716,VALID,0,VALID,24.1884,VALID,7,VALID,0.387109,
2011-03-25, 00:48:04,VALID,1001.64,VALID,0,INVALID,163.723,VALID,0,VALID,24.1902,VALID,7,VALID,0.419531,
2011-03-25, 00:49:04,VALID,1001.63,VALID,0,INVALID,163.723,VALID,0,VALID,24.1707,VALID,7,VALID,0.422656,
2011-03-25, 00:50:04,VALID,1001.63,VALID,0,INVALID,163.746,VALID,0,VALID,24.1513,VALID,7,VALID,0.459375,
2011-03-25, 00:51:04,VALID,1001.6,VALID,0,INVALID,163.739,VALID,0,VALID,24.1318,VALID,7,VALID,0.435547,
2011-03-25, 00:52:04,VALID,1001.62,VALID,0,INVALID,163.739,VALID,0,VALID,24.1513,VALID,7,VALID,0.567578,
2011-03-25, 00:53:04,VALID,1001.6,VALID,0,INVALID,163.716,VALID,0,VALID,24.13,VALID,7,VALID,0.595703,
2011-03-25, 00:54:04,VALID,1001.58,VALID,0,INVALID,163.731,VALID,0,VALID,24.1105,VALID,7,VALID,0.460938,
2011-03-25, 00:55:04,VALID,1001.61,VALID,0,INVALID,163.731,VALID,0,VALID,24.0697,VALID,7,VALID,0.51875,
2011-03-25, 00:56:04,VALID,1001.58,VALID,0,INVALID,163.723,VALID,0,VALID,24.091,VALID,7,VALID,0.453516,
2011-03-25, 00:57:04,VALID,1001.58,VALID,0,INVALID,163.746,VALID,0,VALID,24.1105,VALID,7,VALID,0.357812,
2011-03-25, 00:58:04,VALID,1001.56,VALID,0,INVALID,163.754,VALID,0,VALID,24.1105,VALID,7,VALID,0.274609,
2011-03-25, 00:59:04,VALID,1001.54,VALID,0,INVALID,163.701,VALID,0,VALID,24.13,VALID,7,VALID,0.00117188,
2011-03-25, 01:00:04,VALID,1001.54,VALID,0,INVALID,163.739,VALID,0,VALID,24.1281,VALID,7,VALID,0.164844,
2011-03-25, 01:01:04,VALID,1001.52,VALID,0,INVALID,163.716,VALID,0,VALID,24.1105,VALID,7,VALID,0.00429688,
2011-03-25, 01:02:04,VALID,1001.5,VALID,0,INVALID,163.708,VALID,0,VALID,24.1105,VALID,7,VALID,0,
2011-03-25, 01:03:04,VALID,1001.49,VALID,0,INVALID,163.731,VALID,0,VALID,24.091,VALID,7,VALID,0.0996094,
2011-03-25, 01:04:04,VALID,1001.46,VALID,0,INVALID,163.739,VALID,0,VALID,24.091,VALID,7,VALID,0.529688,
2011-03-25, 01:05:04,VALID,1001.48,VALID,0,INVALID,163.746,VALID,0,VALID,24.0521,VALID,7,VALID,0.605078,
2011-03-25, 01:06:04,VALID,1001.47,VALID,0,INVALID,163.746,VALID,0,VALID,24.0326,VALID,7,VALID,0.647266,
2011-03-25, 01:07:04,VALID,1001.46,VALID,0,INVALID,163.716,VALID,0,VALID,24.0345,VALID,7,VALID,0.69375,
2011-03-25, 01:08:04,VALID,1001.47,VALID,0,INVALID,163.731,VALID,0,VALID,24.0132,VALID,7,VALID,0.617578,
2011-03-25, 01:09:04,VALID,1001.42,VALID,0,INVALID,163.723,VALID,0.100563,VALID,24.0132,VALID,7,VALID,0.582812,
2011-03-25, 01:10:04,VALID,1001.42,VALID,0,INVALID,163.716,VALID,0,VALID,23.9937,VALID,7,VALID,0.561328,
2011-03-25, 01:11:04,VALID,1001.41,VALID,0,INVALID,163.739,VALID,0,VALID,23.9548,VALID,7,VALID,0.532812,
2011-03-25, 01:12:04,VALID,1001.44,VALID,0,INVALID,163.723,VALID,0,VALID,23.9353,VALID,7,VALID,0.432813,
2011-03-25, 01:13:04,VALID,1001.43,VALID,0,INVALID,163.739,VALID,0,VALID,23.9371,VALID,7,VALID,0.452734,
2011-03-25, 01:14:04,VALID,1001.44,VALID,0,INVALID,163.754,VALID,0,VALID,23.9159,VALID,7,VALID,0.483984,
2011-03-25, 01:15:04,VALID,1001.46,VALID,0,INVALID,163.754,VALID,0,VALID,23.9353,VALID,7,VALID,0.316016,
2011-03-25, 01:16:04,VALID,1001.44,VALID,0,INVALID,163.754,VALID,0,VALID,23.9353,VALID,7,VALID,0.142969,
2011-03-25, 01:17:04,VALID,1001.45,VALID,0,INVALID,163.739,VALID,0,VALID,23.9159,VALID,7,VALID,0.211719,
2011-03-25, 01:18:04,VALID,1001.46,VALID,0,INVALID,163.739,VALID,0.100563,VALID,23.9159,VALID,7,VALID,0.332422,
2011-03-25, 01:19:04,VALID,1001.46,VALID,0,INVALID,163.746,VALID,0,VALID,23.914,VALID,7,VALID,0.392969,
2011-03-25, 01:20:04,VALID,1001.46,VALID,0,INVALID,163.746,VALID,0,VALID,23.9353,VALID,7,VALID,0.339453,
2011-03-25, 01:21:04,VALID,1001.47,VALID,0,INVALID,163.739,VALID,0,VALID,23.9548,VALID,7,VALID,0.436719,
2011-03-25, 01:22:04,VALID,1001.45,VALID,0,INVALID,163.731,VALID,0,VALID,23.9548,VALID,7,VALID,0.492578,
2011-03-25, 01:23:04,VALID,1001.45,VALID,0,INVALID,163.723,VALID,0,VALID,23.9742,VALID,7,VALID,0.451172,
2011-03-25, 01:24:04,VALID,1001.45,VALID,0,INVALID,163.716,VALID,0,VALID,23.9742,VALID,7,VALID,0.422266,
2011-03-25, 01:25:04,VALID,1001.48,VALID,0,INVALID,163.746,VALID,0,VALID,23.9742,VALID,7,VALID,0.432813,
2011-03-25, 01:26:04,VALID,1001.47,VALID,0,INVALID,163.708,VALID,0,VALID,23.9742,VALID,7,VALID,0.40625,
2011-03-25, 01:27:04,VALID,1001.48,VALID,0,INVALID,163.731,VALID,0,VALID,23.9955,VALID,7,VALID,0.389844,
2011-03-25, 01:28:04,VALID,1001.47,VALID,0,INVALID,163.723,VALID,0,VALID,23.9742,VALID,7,VALID,0.244922,
2011-03-25, 01:29:04,VALID,1001.48,VALID,0,INVALID,163.731,VALID,0,VALID,23.953,VALID,7,VALID,0.219531,
2011-03-25, 01:30:04,VALID,1001.49,VALID,0,INVALID,163.746,VALID,0,VALID,23.9335,VALID,7,VALID,0.174609,
2011-03-25, 01:31:04,VALID,1001.48,VALID,0,INVALID,163.716,VALID,0.100563,VALID,23.9742,VALID,7,VALID,0.308203,
2011-03-25, 01:32:04,VALID,1001.46,VALID,0,INVALID,163.746,VALID,0,VALID,23.953,VALID,7,VALID,0.258203,
2011-03-25, 01:33:04,VALID,1001.48,VALID,0,INVALID,163.739,VALID,0,VALID,23.9937,VALID,7,VALID,0.151953,
2011-03-25, 01:34:04,VALID,1001.44,VALID,0,INVALID,163.754,VALID,0,VALID,24.0132,VALID,7,VALID,0.110156,
2011-03-25, 01:35:04,VALID,1001.4,VALID,0,INVALID,163.731,VALID,0,VALID,24.0132,VALID,7,VALID,0.172656,
2011-03-25, 01:36:04,VALID,1001.37,VALID,0,INVALID,163.739,VALID,0,VALID,24.0132,VALID,7,VALID,0.265234,
2011-03-25, 01:37:04,VALID,1001.36,VALID,0,INVALID,163.723,VALID,0,VALID,23.9919,VALID,7,VALID,0.266797,
2011-03-25, 01:38:04,VALID,1001.36,VALID,0,INVALID,163.723,VALID,0,VALID,23.9937,VALID,7,VALID,0.257031,
2011-03-25, 01:39:04,VALID,1001.32,VALID,0,INVALID,163.723,VALID,0,VALID,23.9937,VALID,7,VALID,0.323438,
2011-03-25, 01:40:04,VALID,1001.31,VALID,0,INVALID,163.723,VALID,0.100563,VALID,23.9937,VALID,7,VALID,0.418359,
2011-03-25, 01:41:04,VALID,1001.32,VALID,0,INVALID,163.731,VALID,0,VALID,24.0132,VALID,7,VALID,0.408594,
2011-03-25, 01:42:04,VALID,1001.33,VALID,0,INVALID,163.723,VALID,0.100563,VALID,23.9724,VALID,7,VALID,0.544141,
2011-03-25, 01:43:04,VALID,1001.31,VALID,0,INVALID,163.746,VALID,0,VALID,24.0132,VALID,7,VALID,0.536328,
2011-03-25, 01:44:04,VALID,1001.3,VALID,0,INVALID,163.746,VALID,0,VALID,23.9937,VALID,7,VALID,0.545703,
2011-03-25, 01:45:04,VALID,1001.28,VALID,0,INVALID,163.754,VALID,0,VALID,23.9937,VALID,7,VALID,0.5375,
2011-03-25, 01:46:04,VALID,1001.27,VALID,0,INVALID,163.739,VALID,0,VALID,23.9937,VALID,7,VALID,0.460938,
2011-03-25, 01:47:04,VALID,1001.25,VALID,0,INVALID,163.739,VALID,0,VALID,23.9937,VALID,3,VALID,0.636328,
2011-03-25, 01:48:04,VALID,1001.22,VALID,0,INVALID,163.723,VALID,0.100563,VALID,23.953,VALID,3,VALID,0.679688,
2011-03-25, 01:49:04,VALID,1001.22,VALID,0,INVALID,163.739,VALID,0,VALID,23.9742,VALID,3,VALID,0.633203,
2011-03-25, 01:50:04,VALID,1001.21,VALID,0,INVALID,163.769,VALID,0,VALID,23.9548,VALID,3,VALID,0.572656,
2011-03-25, 01:51:04,VALID,1001.19,VALID,0,INVALID,163.731,VALID,0,VALID,23.9335,VALID,3,VALID,0.369922,
2011-03-25, 01:52:04,VALID,1001.15,VALID,0,INVALID,163.723,VALID,0,VALID,23.9548,VALID,3,VALID,0.337109,
2011-03-25, 01:53:04,VALID,1001.14,VALID,0,INVALID,163.746,VALID,0,VALID,23.9353,VALID,3,VALID,0.374219,
2011-03-25, 01:54:04,VALID,1001.12,VALID,0,INVALID,163.754,VALID,0,VALID,23.8964,VALID,3,VALID,0.0425781,
2011-03-25, 01:55:04,VALID,1001.08,VALID,0,INVALID,163.731,VALID,0,VALID,23.9159,VALID,3,VALID,0.264062,
2011-03-25, 01:56:04,VALID,1001.07,VALID,0,INVALID,163.731,VALID,0,VALID,23.9159,VALID,3,VALID,0.241016,
2011-03-25, 01:57:04,VALID,1001.07,VALID,0,INVALID,163.746,VALID,0,VALID,23.914,VALID,3,VALID,0.252734,
2011-03-25, 01:58:04,VALID,1001.04,VALID,0,INVALID,163.746,VALID,0,VALID,23.9159,VALID,3,VALID,0.294531,
2011-03-25, 01:59:04,VALID,1001.03,VALID,0,INVALID,163.739,VALID,0,VALID,23.9159,VALID,3,VALID,0.326562,
2011-03-25, 02:00:04,VALID,1000.99,VALID,0,INVALID,163.723,VALID,0.100563,VALID,23.9159,VALID,3,VALID,0.29375,
2011-03-25, 02:01:04,VALID,1000.97,VALID,0,INVALID,163.739,VALID,0,VALID,23.9353,VALID,3,VALID,0.378906,
2011-03-25, 02:02:04,VALID,1000.92,VALID,0,INVALID,163.769,VALID,0,VALID,23.9548,VALID,3,VALID,0.368359,
2011-03-25, 02:03:04,VALID,1000.9,VALID,0,INVALID,163.746,VALID,0,VALID,23.9548,VALID,3,VALID,0.367188,
2011-03-25, 02:04:04,VALID,1000.86,VALID,0,INVALID,163.716,VALID,0,VALID,23.9937,VALID,3,VALID,0.242188,
2011-03-25, 02:05:04,VALID,1000.88,VALID,0,INVALID,163.746,VALID,0,VALID,23.9937,VALID,3,VALID,0.245703,
2011-03-25, 02:06:04,VALID,1000.84,VALID,0,INVALID,163.723,VALID,0,VALID,24.0132,VALID,3,VALID,0.282031,
2011-03-25, 02:07:04,VALID,1000.82,VALID,0,INVALID,163.723,VALID,0,VALID,24.0114,VALID,3,VALID,0.391016,
2011-03-25, 02:08:04,VALID,1000.82,VALID,0,INVALID,163.739,VALID,0,VALID,24.0308,VALID,16,VALID,0.675391,
2011-03-25, 02:09:04,VALID,1000.77,VALID,0,INVALID,163.716,VALID,0.100563,VALID,24.0503,VALID,19,VALID,0.540625,
2011-03-25, 02:10:04,VALID,1000.76,VALID,0,INVALID,163.754,VALID,0,VALID,24.0521,VALID,19,VALID,0.563281,
2011-03-25, 02:11:04,VALID,1000.78,VALID,0,INVALID,163.746,VALID,0,VALID,24.0132,VALID,19,VALID,0.503516,
2011-03-25, 02:12:04,VALID,1000.75,VALID,0,INVALID,163.731,VALID,0,VALID,23.9742,VALID,19,VALID,0.483984,
2011-03-25, 02:13:04,VALID,1000.71,VALID,0,INVALID,163.746,VALID,0,VALID,23.9353,VALID,11,VALID,0.682422,
2011-03-25, 02:14:04,VALID,1000.72,VALID,0,INVALID,163.746,VALID,0,VALID,23.9353,VALID,5,VALID,0.520703,
2011-03-25, 02:15:04,VALID,1000.72,VALID,0,INVALID,163.723,VALID,0,VALID,23.9159,VALID,5,VALID,0.554297,
2011-03-25, 02:16:04,VALID,1000.72,VALID,0,INVALID,163.731,VALID,0,VALID,23.9159,VALID,5,VALID,0.454297,
2011-03-25, 02:17:04,VALID,1000.71,VALID,0,INVALID,163.754,VALID,0,VALID,23.9177,VALID,5,VALID,0.55,
2011-03-25, 02:18:04,VALID,1000.72,VALID,0,INVALID,163.769,VALID,0,VALID,23.8964,VALID,5,VALID,0.637891,
2011-03-25, 02:19:04,VALID,1000.73,VALID,0,INVALID,163.762,VALID,0,VALID,23.8964,VALID,5,VALID,0.647656,
2011-03-25, 02:20:04,VALID,1000.73,VALID,0,INVALID,163.746,VALID,0,VALID,23.9353,VALID,5,VALID,0.708594,
2011-03-25, 02:21:04,VALID,1000.72,VALID,0,INVALID,163.754,VALID,0,VALID,23.9353,VALID,5,VALID,0.476172,
2011-03-25, 02:22:04,VALID,1000.75,VALID,0,INVALID,163.754,VALID,0,VALID,23.9548,VALID,5,VALID,0.536719,
2011-03-25, 02:23:04,VALID,1000.76,VALID,0,INVALID,163.746,VALID,0,VALID,23.9353,VALID,5,VALID,0.540625,
2011-03-25, 02:24:04,VALID,1000.75,VALID,0,INVALID,163.731,VALID,0,VALID,23.9548,VALID,5,VALID,0.380859,
2011-03-25, 02:25:04,VALID,1000.75,VALID,0,INVALID,163.754,VALID,0,VALID,23.9548,VALID,5,VALID,0.623828,
2011-03-25, 02:26:04,VALID,1000.77,VALID,0,INVALID,163.739,VALID,0,VALID,23.9548,VALID,5,VALID,0.568359,
2011-03-25, 02:27:04,VALID,1000.79,VALID,0,INVALID,163.739,VALID,0,VALID,23.9742,VALID,5,VALID,0.589063,
2011-03-25, 02:28:04,VALID,1000.77,VALID,0,INVALID,163.754,VALID,0,VALID,23.9742,VALID,5,VALID,0.564844,
2011-03-25, 02:29:04,VALID,1000.79,VALID,0,INVALID,163.762,VALID,0,VALID,23.9742,VALID,5,VALID,0.548437,
2011-03-25, 02:30:04,VALID,1000.79,VALID,0,INVALID,163.746,VALID,0,VALID,23.9937,VALID,5,VALID,0.555859,
2011-03-25, 02:31:04,VALID,1000.78,VALID,0,INVALID,163.731,VALID,0.100563,VALID,23.9724,VALID,4,VALID,0.484766,
2011-03-25, 02:32:04,VALID,1000.75,VALID,0,INVALID,163.701,VALID,0,VALID,23.9937,VALID,4,VALID,0.567969,
2011-03-25, 02:33:04,VALID,1000.76,VALID,0,INVALID,163.754,VALID,0,VALID,23.9724,VALID,4,VALID,0.490234,
2011-03-25, 02:34:04,VALID,1000.77,VALID,0,INVALID,163.731,VALID,0,VALID,24.0345,VALID,4,VALID,0.626953,
2011-03-25, 02:35:04,VALID,1000.72,VALID,0,INVALID,163.731,VALID,0,VALID,24.0132,VALID,4,VALID,0.463281,
2011-03-25, 02:36:04,VALID,1000.72,VALID,0,INVALID,163.739,VALID,0.100563,VALID,24.0132,VALID,4,VALID,0.488281,
2011-03-25, 02:37:04,VALID,1000.71,VALID,0,INVALID,163.739,VALID,0.100563,VALID,23.9919,VALID,4,VALID,0.485156,
2011-03-25, 02:38:04,VALID,1000.68,VALID,0,INVALID,163.731,VALID,0,VALID,24.0132,VALID,4,VALID,0.35,
2011-03-25, 02:39:04,VALID,1000.68,VALID,0,INVALID,163.746,VALID,0,VALID,24.0132,VALID,4,VALID,0.217969,
2011-03-25, 02:40:04,VALID,1000.66,VALID,0,INVALID,163.731,VALID,0,VALID,24.0326,VALID,1,VALID,0.351953,
2011-03-25, 02:41:04,VALID,1000.65,VALID,0,INVALID,163.716,VALID,0,VALID,24.0132,VALID,1,VALID,0.275,
2011-03-25, 02:42:04,VALID,1000.65,VALID,0,INVALID,163.731,VALID,0,VALID,24.0345,VALID,1,VALID,0.332422,
2011-03-25, 02:43:04,VALID,1000.64,VALID,0,INVALID,163.723,VALID,0,VALID,24.0326,VALID,1,VALID,0.298438,
2011-03-25, 02:44:04,VALID,1000.59,VALID,0,INVALID,163.746,VALID,0,VALID,24.0326,VALID,1,VALID,0.228516,
2011-03-25, 02:45:04,VALID,1000.59,VALID,0,INVALID,163.739,VALID,0,VALID,24.0132,VALID,1,VALID,0.302344,
2011-03-25, 02:46:04,VALID,1000.58,VALID,0,INVALID,163.701,VALID,0,VALID,24.0132,VALID,1,VALID,0.358984,
2011-03-25, 02:47:04,VALID,1000.57,VALID,0,INVALID,163.731,VALID,0,VALID,23.9742,VALID,353,VALID,0.345313,
2011-03-25, 02:48:04,VALID,1000.55,VALID,0,INVALID,163.746,VALID,0,VALID,23.9955,VALID,351,VALID,0.406641,
2011-03-25, 02:49:04,VALID,1000.5,VALID,0,INVALID,163.723,VALID,0,VALID,23.9548,VALID,351,VALID,0.422266,
2011-03-25, 02:50:04,VALID,1000.51,VALID,0,INVALID,163.754,VALID,0,VALID,23.9742,VALID,351,VALID,0.390625,
2011-03-25, 02:51:04,VALID,1000.51,VALID,0,INVALID,163.731,VALID,0,VALID,23.9724,VALID,351,VALID,0.344531,
2011-03-25, 02:52:04,VALID,1000.47,VALID,0,INVALID,163.739,VALID,0,VALID,23.9937,VALID,351,VALID,0.436328,
2011-03-25, 02:53:04,VALID,1000.47,VALID,0,INVALID,163.716,VALID,0,VALID,23.9937,VALID,351,VALID,0.222266,
2011-03-25, 02:54:04,VALID,1000.46,VALID,0,INVALID,163.762,VALID,0.100563,VALID,23.9937,VALID,351,VALID,0,
2011-03-25, 02:55:04,VALID,1000.43,VALID,0,INVALID,163.708,VALID,0.100563,VALID,23.9937,VALID,351,VALID,0.286719,
2011-03-25, 02:56:04,VALID,1000.43,VALID,0,INVALID,163.739,VALID,0,VALID,24.015,VALID,351,VALID,0.180469,
2011-03-25, 02:57:04,VALID,1000.41,VALID,0,INVALID,163.723,VALID,0,VALID,24.0132,VALID,351,VALID,0.145703,
2011-03-25, 02:58:04,VALID,1000.39,VALID,0,INVALID,163.723,VALID,0,VALID,24.0132,VALID,351,VALID,0.232031,
2011-03-25, 02:59:04,VALID,1000.39,VALID,0,INVALID,163.731,VALID,0,VALID,23.9919,VALID,351,VALID,0.357812,
2011-03-25, 03:00:04,VALID,1000.39,VALID,0,INVALID,163.754,VALID,0.100563,VALID,24.0132,VALID,351,VALID,0.352734,
2011-03-25, 03:01:04,VALID,1000.4,VALID,0,INVALID,163.723,VALID,0.100563,VALID,23.9724,VALID,351,VALID,0.4125,
2011-03-25, 03:02:04,VALID,1000.43,VALID,0,INVALID,163.739,VALID,0,VALID,23.9724,VALID,351,VALID,0.454688,
2011-03-25, 03:03:04,VALID,1000.44,VALID,0,INVALID,163.723,VALID,0,VALID,23.9761,VALID,351,VALID,0.580078,
2011-03-25, 03:04:04,VALID,1000.44,VALID,0,INVALID,163.746,VALID,0.100563,VALID,23.9335,VALID,351,VALID,0.535156,
2011-03-25, 03:05:04,VALID,1000.45,VALID,0,INVALID,163.739,VALID,0.100563,VALID,23.8946,VALID,351,VALID,0.569531,
2011-03-25, 03:06:04,VALID,1000.45,VALID,0,INVALID,163.739,VALID,0,VALID,23.8964,VALID,351,VALID,0.578516,
2011-03-25, 03:07:04,VALID,1000.45,VALID,0,INVALID,163.739,VALID,0,VALID,23.8769,VALID,351,VALID,0.564844,
2011-03-25, 03:08:04,VALID,1000.48,VALID,0,INVALID,163.746,VALID,0.100563,VALID,23.8556,VALID,352,VALID,0.701563,
2011-03-25, 03:09:04,VALID,1000.46,VALID,0,INVALID,163.746,VALID,0.100563,VALID,23.8362,VALID,359,VALID,0.580078,
2011-03-25, 03:10:04,VALID,1000.48,VALID,0,INVALID,163.754,VALID,0.100563,VALID,23.8362,VALID,359,VALID,0.651172,
2011-03-25, 03:11:04,VALID,1000.49,VALID,0,INVALID,163.739,VALID,0,VALID,23.838,VALID,359,VALID,0.590625,
2011-03-25, 03:12:04,VALID,1000.48,VALID,0,INVALID,163.731,VALID,0,VALID,23.7973,VALID,359,VALID,0.530469,
2011-03-25, 03:13:04,VALID,1000.49,VALID,0,INVALID,163.762,VALID,0,VALID,23.7796,VALID,358,VALID,0.49375,
2011-03-25, 03:14:04,VALID,1000.53,VALID,0,INVALID,163.739,VALID,0.100563,VALID,23.7601,VALID,358,VALID,0.541016,
2011-03-25, 03:15:04,VALID,1000.51,VALID,0,INVALID,163.739,VALID,0.100563,VALID,23.7601,VALID,358,VALID,0.375,
2011-03-25, 03:16:04,VALID,1000.54,VALID,0,INVALID,163.754,VALID,0,VALID,23.7601,VALID,358,VALID,0.313672,
2011-03-25, 03:17:04,VALID,1000.52,VALID,0,INVALID,163.746,VALID,0,VALID,23.7389,VALID,358,VALID,0.480859,
2011-03-25, 03:18:04,VALID,1000.54,VALID,0,INVALID,163.739,VALID,0,VALID,23.7194,VALID,358,VALID,0.466797,
2011-03-25, 03:19:04,VALID,1000.55,VALID,0,INVALID,163.762,VALID,0.100563,VALID,23.7389,VALID,358,VALID,0.539453,
2011-03-25, 03:20:04,VALID,1000.56,VALID,0,INVALID,163.739,VALID,0.100563,VALID,23.7601,VALID,358,VALID,0.494531,
2011-03-25, 03:21:04,VALID,1000.56,VALID,0,INVALID,163.731,VALID,0,VALID,23.7601,VALID,358,VALID,0.519922,
2011-03-25, 03:22:04,VALID,1000.56,VALID,0,INVALID,163.754,VALID,0.100563,VALID,23.7601,VALID,358,VALID,0.660156,
2011-03-25, 03:23:04,VALID,1000.57,VALID,0,INVALID,163.769,VALID,0,VALID,23.7407,VALID,358,VALID,0.7375,
2011-03-25, 03:24:04,VALID,1000.58,VALID,0,INVALID,163.754,VALID,0.100563,VALID,23.7407,VALID,356,VALID,0.709766,
2011-03-25, 03:25:04,VALID,1000.59,VALID,0,INVALID,163.762,VALID,0,VALID,23.7194,VALID,355,VALID,0.686719,
2011-03-25, 03:26:04,VALID,1000.6,VALID,0,INVALID,163.792,VALID,0,VALID,23.7407,VALID,355,VALID,0.682422,
2011-03-25, 03:27:04,VALID,1000.6,VALID,0,INVALID,163.746,VALID,0.100563,VALID,23.7212,VALID,355,VALID,0.650391,
2011-03-25, 03:28:04,VALID,1000.61,VALID,0,INVALID,163.777,VALID,0.100563,VALID,23.7,VALID,355,VALID,0.596094,
2011-03-25, 03:29:04,VALID,1000.61,VALID,0,INVALID,163.762,VALID,0,VALID,23.6805,VALID,355,VALID,0.532422,
2011-03-25, 03:30:04,VALID,1000.63,VALID,0,INVALID,163.739,VALID,0.100563,VALID,23.7017,VALID,355,VALID,0.476172,
2011-03-25, 03:31:04,VALID,1000.66,VALID,0,INVALID,163.762,VALID,0.100563,VALID,23.6805,VALID,355,VALID,0.49375,
2011-03-25, 03:32:04,VALID,1000.63,VALID,0,INVALID,163.746,VALID,0.100563,VALID,23.7017,VALID,355,VALID,0.484766,
2011-03-25, 03:33:04,VALID,1000.67,VALID,0,INVALID,163.754,VALID,0.100563,VALID,23.6805,VALID,355,VALID,0.423828,
2011-03-25, 03:34:04,VALID,1000.67,VALID,0,INVALID,163.746,VALID,0.100563,VALID,23.6823,VALID,355,VALID,0.545313,
2011-03-25, 03:35:04,VALID,1000.68,VALID,0,INVALID,163.777,VALID,0.100563,VALID,23.661,VALID,355,VALID,0.403906,
2011-03-25, 03:36:04,VALID,1000.71,VALID,0,INVALID,163.754,VALID,0,VALID,23.6823,VALID,355,VALID,0.516797,
2011-03-25, 03:37:04,VALID,1000.7,VALID,0,INVALID,163.769,VALID,0,VALID,23.6823,VALID,360,VALID,0.599219,
2011-03-25, 03:38:04,VALID,1000.67,VALID,0,INVALID,163.716,VALID,0,VALID,23.7017,VALID,360,VALID,0.706641,
2011-03-25, 03:39:04,VALID,1000.71,VALID,0,INVALID,163.731,VALID,0.100563,VALID,23.7,VALID,360,VALID,0.571875,
2011-03-25, 03:40:04,VALID,1000.73,VALID,0,INVALID,163.746,VALID,0.100563,VALID,23.7,VALID,360,VALID,0.451953,